Location: Lombard
(41.8800°N, 88.0080°W)
Time: 23:49:09
(UTC-05:00)

Transit 2A - Pass Details

Date: 16 February 2023
Orbit: 591 x 964 km, 66.7° (Epoch: 20 March)

Event Time Altitude Azimuth Distance (km) Brightness Sun altitude
Rises 14:43:16 0° 240° (WSW) 3,051 10.3 25.0°
Reaches altitude 10° 14:45:45 10° 251° (WSW) 2,196 9.6 24.7°
Maximum altitude 14:50:10 30° 313° (NW) 1,350 7.5 24.1°
Drops below altitude 10° 14:55:02 10° 14° (NNE) 2,430 8.2 23.4°
Sets 14:57:55 0° 25° (NNE) 3,433 8.8 23.1°
